Quantico, VA

9:04 AM EDT on March 26, 2017 (GMT -0400)
Quantico Marine Corps Air Facility

Weather History for KNYG - December, 2012

Change the Weather History Date:

Sunday, December 23, 2012

  Actual Average Record
Temperature  
Mean Temperature 36 °F -  
Max Temperature 45 °F 42 °F 66 °F (2015)
Min Temperature 26 °F 27 °F 10 °F (2000)
Degree Days  
Heating Degree Days 30    
Moisture  
Dew Point 24 °F    
Average Humidity 66    
Maximum Humidity 81    
Minimum Humidity 42    
Precipitation  
Precipitation 0.00 in - - ()
Sea Level Pressure  
Sea Level Pressure 30.03 in    
Wind  
Wind Speed 6 mph (West)    
Max Wind Speed 13 mph    
Max Gust Speed -    
Visibility 10 miles    
Events      
Averages and records for this station are not official NWS values.
T = Trace of Precipitation, MM = Missing Value Source: NWS Daily Summary

Daily Weather History Graph

Daily Weather History Graph

Search for Another Location

Airport or City:

Trip Planner

Search our weather history database for the weather conditions in past years. The results will help you decide how hot, cold, wet, or windy it might be!

Date:

Astronomy

Dec. 23, 2012 Rise Set
Actual Time 7:24 AM EST 4:53 PM EST
Civil Twilight 6:54 AM EST 5:22 PM EST
Nautical Twilight 6:21 AM EST 5:56 PM EST
Astronomical Twilight 5:48 AM EST 6:28 PM EST
Moon 1:41 PM EST (12/23) 3:06 AM EST (12/23)
Length of Visible Light 10h 28m
Length of Day
9h 28m
Waxing Gibbous, 81% of the Moon is Illuminated
Dec 23
Waxing Gibbous
Dec 28
Full
Jan 4
Last Quarter
Jan 11
New
Jan 18
First Quarter

Hourly Weather History & Observations

Time (EST) Temp. Windchill Dew Point Humidity Pressure Visibility Wind Dir Wind Speed Gust Speed Precip Events Conditions
12:56 AM 32.0 °F 24.8 °F 21.9 °F 66% 30.06 in 10.0 mi NW 8.1 mph - N/A   Clear
1:56 AM 30.0 °F 24.1 °F 19.0 °F 64% 30.08 in 10.0 mi NW 5.8 mph - N/A   Clear
2:56 AM 30.0 °F 24.1 °F 19.0 °F 64% 30.09 in 10.0 mi NW 5.8 mph - N/A   Clear
3:56 AM 30.0 °F 26.5 °F 19.0 °F 64% 30.09 in 10.0 mi NW 3.5 mph - N/A   Clear
4:56 AM 28.0 °F - 21.0 °F 75% 30.09 in 10.0 mi Calm Calm - N/A   Clear
5:56 AM 26.1 °F 20.5 °F 21.0 °F 81% 30.09 in 10.0 mi WNW 4.6 mph - N/A   Clear
6:56 AM 26.1 °F 18.4 °F 19.9 °F 78% 30.10 in 10.0 mi WNW 6.9 mph - N/A   Clear
7:56 AM 26.1 °F 19.4 °F 21.0 °F 81% 30.11 in 10.0 mi WNW 5.8 mph - N/A   Clear
8:56 AM 30.0 °F 26.5 °F 23.0 °F 75% 30.09 in 10.0 mi West 3.5 mph - N/A   Clear
9:56 AM 36.0 °F 29.6 °F 25.0 °F 64% 30.09 in 10.0 mi South 8.1 mph - N/A   Clear
10:56 AM 37.9 °F 30.9 °F 24.1 °F 57% 30.07 in 10.0 mi SSW 10.4 mph - N/A   Clear
11:56 AM 41.0 °F 35.8 °F 23.0 °F 49% 30.03 in 10.0 mi South 8.1 mph - N/A   Clear
12:56 PM 44.1 °F 40.8 °F 21.9 °F 42% 29.99 in 10.0 mi South 5.8 mph - N/A   Clear
1:56 PM 45.0 °F 41.8 °F 27.0 °F 49% 29.96 in 10.0 mi SSW 5.8 mph - N/A   Clear
2:56 PM 45.0 °F 38.9 °F 30.0 °F 56% 29.94 in 10.0 mi South 12.7 mph - N/A   Clear
3:56 PM 45.0 °F 41.2 °F 28.9 °F 53% 29.94 in 10.0 mi SSW 6.9 mph - N/A   Clear
4:56 PM 44.1 °F 40.8 °F 32.0 °F 63% 29.94 in 10.0 mi South 5.8 mph - N/A   Clear
5:56 PM 43.0 °F 40.3 °F 30.9 °F 62% 29.94 in 10.0 mi SW 4.6 mph - N/A   Clear
6:56 PM 37.0 °F 33.3 °F 28.0 °F 70% 29.96 in 10.0 mi WNW 4.6 mph - N/A   Clear
7:56 PM 34.0 °F 28.8 °F 27.0 °F 75% 29.96 in 10.0 mi NW 5.8 mph - N/A   Clear
8:56 PM 33.1 °F 26.9 °F 25.0 °F 72% 29.98 in 10.0 mi NW 6.9 mph - N/A   Clear
9:56 PM 32.0 °F 26.4 °F 24.1 °F 73% 30.00 in 10.0 mi NW 5.8 mph - N/A   Clear
10:56 PM 32.0 °F 25.6 °F 25.0 °F 75% 30.01 in 10.0 mi NW 6.9 mph - N/A   Clear
11:56 PM 30.9 °F 23.5 °F 24.1 °F 76% 30.01 in 10.0 mi WNW 8.1 mph - N/A   Clear